OneWeb SL0351

operational
NORAD ID: 49215 Int'l Des: 2021-083 Owner: ONEWEBN Country: UK Constellation: oneweb
LEOCIRCULARPOLARONEWEB_TYPE

About OneWeb SL0351

Description loading...

Live Position

Loading 3D Globe...

Upcoming Passes

Altitude History

Altitude vs Time

uPlot chart will show altitude changes over time

Two-Line Element Set

1 49215U 21083AF 25258.71657877 -.00000068 00000-0 -19919-3 0 9993
2 49215 87.9281 329.1546 0001347 125.4734 234.6526 13.20772295200546
Epoch: Sep 15, 2025 • Age: 17 hours

Current Status

Altitude 1194.1 km
Velocity 7.26 km/s
Sub-Earth Point 78.28°N, 7.69°W
Launch Date Sep 14, 2021
Age 4 years
Type internet

Technical Details

Classification Payload
Mass 148.00 kg
Dry Mass 140.00 kg
Total Mass 148.00 kg
Length 1.30 m
Diameter 1.00 m
Span 5.00 m
Shape Trapezoid+2 pan
Manufacturer ONEWUS
Bus Type ARROW
Phase Status In Orbit
Owner/State ONEWEBN/UK

Large Constellations

Loading constellations...